Temperature
13 13 14 14 12 11 12 12 13 14 14 16 17 17 16 17 18 18 18 19 19 19 19 18 18 18 17 17 17 17 17 17 17 17 17 17 17 16 16 16 16 16 15 15 15 15 15 15 14
13 13 13 13 11 12 12 12 13 14 15 16 17 17 16 17 18 18 18 18 18 18 18 18 17 17 17 17 16 17 17 17 17 17 17 17 17 16 16 16 16 16 15 15 15 15 15 14 14
12 13 13 10 11 11 13 13 13 14 15 15 16 16 16 17 17 17 18 18 18 18 17 17 17 17 17 17 16 16 16 16 16 16 16 16 16 16 16 16 15 15 15 15 15 15 14 14 14
12 12 12 10 11 11 12 12 12 13 14 15 15 15 16 16 16 16 17 17 17 17 17 17 16 16 16 16 16 16 16 16 16 16 16 16 16 16 16 15 15 15 15 15 15 14 14 14 14
12 12 10 10 11 11 11 12 13 12 13 14 14 13 14 16 16 16 16 17 17 17 16 16 16 16 16 16 16 16 16 16 16 16 16 16 16 16 15 15 15 15 15 15 14 14 14 14 14
11 9 9 10 11 11 11 12 12 12 12 13 13 12 14 15 15 16 16 16 16 16 16 16 16 16 16 16 16 16 16 16 16 16 16 16 15 15 15 15 15 15 14 14 14 14 14 13 13
10 8 9 10 10 10 11 12 11 11 11 12 13 12 14 15 15 15 15 15 15 15 15 15 15 15 15 15 15 15 15 15 15 15 15 15 15 15 15 14 14 14 14 14 14 14 13 13 13
10 8 9 9 9 10 10 11 11 11 11 12 12 12 13 14 14 14 14 14 14 14 14 15 15 15 15 15 15 15 15 15 15 15 15 15 15 15 14 14 14 14 14 14 13 13 13 13 13
9 7 8 9 9 10 10 10 11 11 11 11 12 12 13 13 13 13 13 14 14 14 14 14 14 14 14 14 14 14 14 14 15 15 14 14 14 14 14 14 14 14 14 13 13 13 13 13 12
8 7 8 9 9 9 9 9 10 10 9 10 11 12 12 12 12 12 13 13 13 13 14 14 14 14 14 14 14 14 14 14 14 14 14 14 14 14 14 14 14 13 13 13 13 13 13 12 12
7 7 8 8 9 9 8 9 9 9 8 10 11 11 12 11 12 12 12 12 13 13 13 13 13 14 14 14 14 13 14 14 14 14 14 14 13 13 13 13 13 13 13 13 13 12 12 12 12
6 7 7 8 8 8 8 8 8 8 10 11 11 11 11 11 11 11 11 12 12 12 12 13 13 13 13 13 13 13 13 13 13 14 14 13 13 13 13 13 13 13 13 13 13 12 12 12 12
6 6 7 7 7 7 8 7 8 8 10 11 10 10 10 10 11 11 11 11 11 12 12 12 12 13 13 13 13 13 13 13 13 13 13 13 13 13 13 13 13 13 13 13 13 12 12 12 12
6 6 6 6 7 7 7 7 7 9 10 10 10 10 10 10 10 10 11 11 11 11 12 12 12 12 12 12 13 13 13 13 13 13 13 13 13 13 13 13 12 12 13 12 12 12 12 12 12
5 5 5 6 6 7 7 6 7 10 10 9 10 10 10 10 10 10 11 11 11 11 11 11 12 12 12 12 12 13 12 13 13 13 13 12 12 12 12 12 12 12 12 12 12 12 12 12 11
5 5 5 6 6 7 6 6 8 10 9 9 9 9 9 10 10 10 11 11 11 11 11 11 11 11 11 11 12 12 12 12 12 12 12 12 12 12 12 12 12 12 12 12 12 11 11 11 11
4 4 4 5 6 7 6 6 7 9 9 8 8 8 9 9 10 10 10 10 10 11 11 11 11 11 11 11 11 12 12 12 12 12 12 12 12 12 12 12 12 12 12 11 11 11 11 11 11
5 4 4 5 6 6 5 6 7 8 8 7 8 8 8 9 9 10 10 10 10 10 10 10 10 10 11 11 11 11 11 11 11 11 12 12 11 12 11 11 11 11 11 11 11 11 11 11 11
5 4 4 5 6 6 5 6 7 7 7 6 7 7 8 8 9 9 9 10 10 10 10 10 10 10 10 10 11 11 11 11 11 11 11 11 11 11 11 11 11 11 11 11 11 11 10 10 10
4 4 4 4 6 6 5 5 6 6 6 7 7 7 8 8 9 9 9 9 9 10 10 10 10 10 10 10 10 10 11 11 11 11 11 11 11 11 11 11 11 11 11 11 11 10 10 10 10
4 4 4 4 4 5 4 5 6 6 6 7 7 7 7 8 8 8 9 9 9 9 9 9 10 10 10 10 10 10 10 10 10 10 10 11 11 11 11 10 11 11 11 10 10 10 10 10 10
4 5 5 4 3 3 4 4 5 5 5 6 6 7 7 8 8 8 8 9 9 9 9 9 9 10 10 10 9 10 10 10 10 10 10 10 10 10 10 10 10 10 10 10 10 10 10 10 10
4 5 4 4 3 3 3 3 5 5 5 6 5 6 7 7 7 8 8 8 9 9 9 9 9 10 10 10 9 9 9 10 10 10 10 10 10 10 10 10 10 10 10 10 10 10 10 10 10
5 4 3 3 2 3 3 3 4 4 5 5 5 6 7 7 7 7 8 8 8 9 9 9 9 9 9 9 9 9 9 9 9 9 9 10 10 10 10 10 10 10 10 10 10 10 10 10 10
4 3 3 2 1 2 4 3 4 5 5 5 5 6 6 7 7 7 7 7 8 8 8 8 9 9 9 9 9 9 9 9 9 9 9 9 9 10 10 10 10 10 10 10 10 10 10 10 10
3 3 3 3 2 3 3 3 4 5 5 5 6 6 6 6 6 7 7 7 7 7 8 8 8 8 8 8 9 9 9 9 9 9 9 9 9 10 10 10 10 10 10 10 10 10 10 10 10
3 3 3 2 2 2 3 3 3 5 4 4 5 5 6 6 6 6 6 7 7 7 7 8 8 8 8 8 8 8 8 8 8 9 9 9 9 9 10 10 10 10 10 10 10 10 10 10 10
3 3 2 2 2 2 3 3 4 4 4 4 4 4 5 6 6 6 6 6 7 7 7 7 7 7 7 8 8 8 8 8 8 8 8 9 9 9 9 9 9 9 10 10 9 10 10 10 10
2 2 2 1 2 2 3 4 4 4 4 3 3 4 5 5 5 5 6 6 6 6 7 7 7 7 7 7 7 7 7 7 8 8 8 8 9 9 9 9 9 9 9 9 9 9 10 9 9
2 2 1 1 1 1 1 4 5 4 3 3 3 4 5 5 5 5 5 5 6 6 6 6 6 6 6 6 7 7 7 7 7 7 8 8 8 8 8 8 9 9 9 9 9 9 9 9 9
Wind_Speed
8 4 2 4 4 1 6 6 4 3 3 2 2 3 4 4 4 3 2 2 2 1 4 7 10 12 14 14 14 14 14 15 15 15 17 17 17 18 17 17 17 16 16 15 15 16 15 15 15
3 2 4 4 3 5 7 6 6 5 4 4 2 1 2 3 2 2 4 5 2 1 3 5 8 10 12 13 14 14 14 14 15 15 15 16 17 17 17 17 17 16 16 15 15 16 16 15 15
2 3 3 3 5 8 5 3 5 4 4 2 3 2 2 3 2 2 5 5 2 0 1 4 6 8 11 12 13 14 14 14 14 15 15 15 16 16 17 16 17 16 16 16 16 16 16 15 14
3 3 3 2 10 7 4 2 2 4 4 2 1 5 4 3 1 3 4 3 2 1 1 3 5 7 9 11 13 14 14 14 14 15 15 15 15 15 16 17 17 16 16 16 16 16 16 15 15
3 3 1 6 10 5 4 4 3 3 4 3 2 5 6 3 2 4 4 4 2 2 2 3 5 6 8 9 11 13 14 14 14 14 15 15 15 15 15 16 17 17 16 16 17 16 16 15 15
3 2 3 9 9 5 4 4 3 3 4 4 3 4 6 3 4 6 6 5 3 2 3 3 5 6 7 9 9 11 12 14 14 14 14 15 15 15 15 16 16 16 16 16 17 17 16 16 15
3 3 6 7 6 6 3 2 2 4 6 5 2 4 6 6 5 7 5 4 4 3 3 3 5 6 6 7 8 10 11 12 13 14 14 14 15 15 15 16 16 16 16 17 17 17 17 16 15
3 2 5 6 7 7 2 2 2 3 7 4 3 5 6 7 8 7 6 4 4 4 3 4 4 5 5 6 8 9 10 11 11 13 13 13 14 15 15 16 16 16 16 17 17 17 17 16 15
3 2 8 8 6 4 1 3 4 4 5 5 5 6 7 8 8 7 7 5 4 5 4 4 4 5 4 5 7 8 9 10 10 11 12 12 11 12 12 14 16 16 16 15 17 17 17 16 14
2 5 9 4 3 3 5 6 6 5 8 7 8 8 8 8 7 7 8 8 7 8 7 5 5 5 5 5 5 6 7 8 8 8 9 9 9 9 10 12 14 15 15 15 16 17 16 13 10
2 7 5 5 4 4 7 8 6 7 12 11 11 12 9 9 10 9 10 10 10 9 8 7 6 5 5 5 4 4 4 6 6 7 8 8 7 8 8 8 9 11 12 10 11 12 10 10 9
3 7 6 6 5 5 8 7 7 11 15 12 12 11 10 11 12 12 12 12 10 9 10 7 6 6 6 6 5 4 4 5 5 7 9 7 5 5 5 5 6 6 7 6 6 7 8 9 9
5 7 8 10 11 10 11 12 10 14 17 14 13 12 13 13 13 12 11 11 11 11 10 8 7 7 6 6 5 5 5 6 7 7 8 9 6 6 6 5 6 6 7 7 6 7 8 8 7
4 7 10 11 12 8 10 14 9 15 11 10 11 13 13 13 13 11 10 11 11 11 10 8 7 7 7 6 6 6 5 7 7 7 9 10 8 7 7 7 7 7 8 8 7 7 8 7 7
3 7 10 7 7 5 6 13 12 13 8 11 12 13 13 12 11 11 12 12 12 11 10 9 8 7 7 6 7 6 6 7 7 7 9 10 10 9 8 7 7 8 9 8 7 6 6 7 7
2 3 6 6 4 5 3 14 12 8 7 13 13 13 13 12 11 11 11 11 11 9 9 9 8 7 8 7 6 6 6 6 7 7 8 10 11 11 8 8 8 9 9 8 7 7 6 7 7
2 4 8 9 5 4 5 14 13 10 9 13 14 13 13 12 11 10 9 10 10 9 9 9 7 8 8 7 5 6 6 6 6 7 8 10 11 12 9 8 8 10 8 7 8 7 6 7 7
4 6 7 9 6 6 12 19 19 11 10 12 12 11 11 11 11 8 8 9 9 8 9 9 8 9 8 6 4 4 5 6 6 7 8 10 10 11 10 8 9 10 8 8 8 8 6 6 7
5 8 13 13 10 9 15 21 20 14 9 10 11 10 10 10 9 7 7 7 6 6 8 9 8 8 7 5 5 5 6 6 6 6 8 10 10 11 10 9 9 10 10 10 10 7 7 5 5
8 11 12 12 7 9 14 19 16 11 8 8 10 11 10 9 8 7 6 4 5 6 7 8 8 8 8 7 6 5 5 5 5 6 7 9 10 11 10 10 10 10 9 10 11 8 6 5 7
9 9 10 11 12 6 8 12 9 7 6 7 8 8 8 8 8 8 6 5 5 6 6 7 8 9 8 7 4 3 3 3 4 5 6 8 10 11 10 11 11 11 11 11 12 12 11 8 7
8 8 9 10 9 7 2 8 9 7 8 8 9 9 9 8 7 7 6 5 5 7 6 6 7 7 7 7 7 7 6 6 6 6 6 7 9 10 10 10 12 12 11 11 12 12 9 11 9
7 6 8 9 7 8 4 6 10 4 7 9 9 9 8 7 6 7 6 6 6 6 5 5 6 6 6 7 9 8 8 7 5 5 7 7 8 10 10 10 11 12 11 12 12 11 11 10 10
4 5 5 1 0 5 5 5 9 5 7 8 8 7 7 7 6 6 5 4 4 4 4 5 5 5 5 6 8 9 10 8 7 7 7 7 6 7 10 10 10 12 11 12 12 12 13 11 10
2 3 5 5 3 6 3 5 10 8 7 7 8 8 8 7 6 6 5 5 4 4 4 4 5 5 5 5 7 8 9 9 10 9 8 7 7 7 10 10 10 11 10 11 11 12 12 13 12
3 4 3 4 5 6 4 7 8 7 7 6 6 7 7 6 5 5 5 5 4 4 4 4 4 5 5 5 6 7 8 7 7 8 8 9 8 9 10 11 11 11 12 11 10 10 12 11 12
3 4 4 3 4 6 7 8 9 6 7 7 6 6 6 7 6 6 6 5 4 4 4 4 4 4 5 4 4 5 7 7 7 8 8 8 8 8 10 11 11 11 12 12 11 10 12 11 12
4 4 3 2 3 6 7 7 6 8 8 8 8 7 7 6 6 6 6 6 5 5 5 4 4 5 4 4 4 4 6 6 6 6 7 8 8 7 9 11 11 11 12 12 11 10 10 12 11
3 3 3 3 3 4 6 8 5 7 8 8 7 6 6 6 6 6 6 6 6 5 4 4 4 4 3 4 4 4 4 4 5 6 7 7 7 7 8 9 11 11 12 12 11 11 11 12 11
5 6 5 4 5 5 5 10 5 5 6 5 6 6 6 6 6 5 5 6 5 5 4 4 4 4 4 4 4 4 4 4 4 5 6 6 7 7 7 7 9 10 12 12 13 12 12 12 12
Wind_Direction
344 6 57 59 63 67 236 235 219 245 249 250 240 217 203 204 190 208 294 332 355 140 172 180 178 179 179 177 173 168 164 162 160 160 159 158 156 156 155 153 151 148 145 141 137 133 131 129 126
352 28 59 71 138 219 247 227 221 228 257 303 309 274 274 270 277 313 344 324 334 148 157 177 177 179 181 181 177 173 171 168 165 162 161 162 161 161 160 159 156 152 148 144 141 137 135 133 131
17 53 97 115 190 209 224 217 227 261 288 325 327 310 248 270 315 317 312 314 350 110 170 186 180 181 184 185 181 179 177 174 171 168 165 164 167 167 165 163 159 154 152 148 145 142 141 138 136
68 55 69 193 231 226 225 255 309 317 328 340 345 306 296 277 319 294 314 350 11 310 299 210 189 187 188 187 186 184 183 180 177 174 172 171 169 169 170 166 161 158 155 153 151 147 145 143 140
60 92 164 240 244 246 255 283 309 321 317 329 341 294 285 281 327 332 346 355 352 307 291 230 211 199 197 192 190 190 188 185 182 179 177 176 174 171 169 167 164 161 160 159 155 152 150 147 143
64 92 197 238 245 256 258 276 288 289 290 304 309 280 262 288 353 338 337 330 310 276 277 247 220 213 204 200 195 193 193 191 188 186 182 180 179 177 174 168 165 167 166 164 160 157 154 151 148
119 150 219 242 258 263 252 284 230 268 279 273 259 267 275 296 320 324 320 318 310 285 265 253 223 213 209 210 202 199 194 192 192 192 190 186 184 181 178 174 171 170 172 170 165 162 158 156 153
118 132 227 242 245 254 272 316 253 253 267 268 215 234 266 291 318 328 314 301 291 275 259 246 228 217 205 210 208 206 200 196 194 192 191 190 189 186 181 178 176 176 175 175 171 166 162 161 158
84 171 231 230 230 248 303 312 297 286 263 267 243 237 262 297 317 322 312 297 279 273 256 243 231 216 207 205 207 203 201 197 194 192 191 188 187 185 183 181 180 181 180 179 177 172 166 161 160
115 214 235 233 223 263 282 271 281 291 280 271 272 273 286 293 294 288 287 280 265 264 253 235 230 221 206 204 201 198 197 193 190 188 185 183 179 180 180 182 184 184 181 180 180 175 167 156 151
191 227 257 265 256 268 279 276 261 253 265 253 260 274 281 283 283 277 270 269 262 256 255 245 226 223 212 202 197 197 191 184 184 182 180 177 171 170 169 170 179 180 178 171 173 166 156 151 148
250 256 259 269 272 269 267 274 268 240 250 255 256 264 269 269 267 263 266 270 269 260 254 249 230 217 219 205 199 200 202 189 188 184 181 171 174 175 172 172 170 166 165 158 153 155 154 155 155
251 271 272 274 280 268 267 259 263 262 261 268 269 266 262 262 263 260 260 266 270 259 252 248 234 218 217 212 199 203 208 199 192 185 185 178 182 186 183 180 177 172 167 166 163 164 165 163 162
270 283 286 281 276 271 268 271 258 261 266 274 271 267 264 260 259 262 261 263 262 258 247 243 241 227 216 220 208 206 212 199 190 188 189 186 184 189 189 186 184 181 177 174 173 173 174 172 171
290 299 298 273 266 266 284 281 242 253 279 281 275 270 269 263 259 256 255 256 256 260 245 237 242 229 216 222 216 207 210 199 198 196 191 190 188 190 193 191 190 185 177 175 171 171 174 174 174
328 315 298 285 274 257 262 273 266 265 279 280 278 273 271 267 259 254 256 255 254 255 250 237 243 230 221 221 224 212 212 210 202 195 193 194 192 190 193 196 195 184 177 176 177 175 183 184 178
2 299 279 294 266 253 243 271 280 285 278 279 281 278 274 273 269 262 261 258 252 248 246 238 240 232 223 221 225 221 212 215 206 197 197 197 194 192 194 199 195 182 180 183 187 183 184 188 183
278 277 274 277 283 268 264 271 285 289 278 279 283 281 276 270 269 272 269 266 255 247 240 236 238 231 216 213 225 229 219 216 207 204 203 198 197 196 196 198 194 185 186 189 188 185 181 187 180
252 260 273 275 278 281 269 276 284 290 285 279 281 278 274 270 270 275 274 272 265 254 245 237 233 226 207 202 209 220 218 209 208 211 207 202 200 199 201 202 194 192 194 195 186 186 178 184 165
252 268 273 284 286 285 279 278 277 273 265 266 274 277 277 282 293 292 282 271 270 257 250 251 241 226 212 209 212 227 214 208 212 211 210 209 205 202 206 202 199 199 195 193 191 181 178 181 174
258 246 259 279 311 293 294 288 270 273 268 280 285 282 277 271 275 282 281 266 274 272 257 255 247 226 216 210 213 228 208 198 211 214 216 216 211 206 206 205 201 199 196 197 196 189 183 187 188
267 247 257 282 304 296 330 293 284 277 287 290 294 291 283 280 276 275 271 268 272 270 265 261 248 228 220 208 207 210 216 223 227 221 222 223 216 211 209 208 205 202 199 198 198 196 191 183 186
248 276 271 273 262 281 251 248 284 300 287 289 290 288 282 280 278 273 263 260 264 271 270 266 255 238 230 218 210 212 220 226 223 217 218 227 223 214 209 211 209 204 201 200 197 195 193 191 187
270 315 302 314 244 271 243 223 280 265 260 284 289 295 292 284 283 279 270 272 278 288 273 259 256 254 247 230 217 218 220 218 217 222 220 225 226 220 211 209 210 204 202 200 199 198 195 195 189
48 26 349 343 337 256 247 246 259 266 268 266 283 294 298 291 284 286 290 286 284 290 284 272 254 255 256 248 234 224 223 219 216 220 221 225 228 227 215 209 211 207 202 201 197 198 199 197 192
208 158 178 257 266 289 283 248 260 275 286 285 285 289 299 304 303 297 286 283 275 281 285 280 267 261 257 253 250 234 230 226 223 223 225 224 227 223 214 209 211 210 201 199 197 201 201 199 198
174 204 202 206 274 278 268 277 295 297 309 309 308 311 306 303 304 303 306 307 294 281 276 273 268 274 269 256 253 253 242 234 231 229 227 229 229 225 212 209 211 210 201 198 195 202 202 198 198
205 172 130 173 265 276 281 272 270 298 304 312 313 309 309 313 312 312 314 315 302 284 275 273 264 265 270 278 268 274 256 239 235 232 234 232 226 222 217 212 212 207 200 198 198 201 199 196 196
170 167 177 197 215 235 279 275 245 265 286 294 298 298 303 309 307 306 308 304 302 304 289 283 286 286 289 281 277 273 274 267 248 239 239 231 220 216 219 215 209 207 203 198 198 203 193 196 195
194 194 174 204 248 229 256 276 277 266 285 291 299 308 308 304 302 305 305 308 311 305 300 295 292 292 293 289 284 283 277 279 266 257 253 229 219 215 213 214 213 210 205 198 199 199 192 194 196
Height
1485 1487 1489 1491 1495 1501 1499 1492 1487 1485 1483 1481 1480 1480 1480 1481 1482 1485 1479 1476 1475 1475 1476 1477 1479 1480 1482 1484 1486 1488 1490 1492 1494 1495 1497 1498 1500 1501 1502 1504 1505 1506 1508 1509 1510 1510 1511 1512 1513
1485 1487 1490 1491 1498 1502 1495 1487 1485 1482 1481 1479 1479 1478 1478 1477 1477 1477 1475 1474 1474 1475 1476 1477 1478 1480 1482 1484 1486 1488 1489 1491 1493 1494 1496 1498 1499 1501 1502 1503 1504 1506 1507 1508 1509 1510 1511 1512 1513
1485 1487 1489 1491 1495 1494 1488 1483 1481 1480 1479 1479 1478 1478 1478 1477 1476 1476 1475 1474 1474 1474 1475 1476 1478 1480 1481 1483 1485 1487 1488 1490 1492 1493 1495 1497 1498 1500 1501 1502 1504 1505 1506 1507 1508 1509 1510 1512 1513
1485 1488 1489 1492 1488 1485 1483 1481 1480 1479 1479 1478 1479 1477 1476 1476 1476 1475 1474 1473 1473 1473 1474 1475 1477 1478 1480 1482 1484 1486 1487 1489 1490 1492 1494 1495 1497 1498 1500 1501 1503 1504 1505 1506 1508 1509 1510 1511 1513
1485 1486 1490 1490 1485 1482 1480 1480 1479 1480 1479 1478 1478 1477 1474 1474 1473 1473 1472 1471 1471 1472 1473 1474 1476 1477 1478 1480 1482 1484 1485 1487 1489 1490 1492 1494 1495 1497 1498 1500 1501 1503 1504 1505 1507 1508 1509 1511 1512
1485 1486 1492 1487 1483 1481 1479 1479 1479 1479 1478 1478 1477 1475 1471 1472 1471 1471 1470 1470 1470 1470 1471 1473 1474 1475 1477 1478 1479 1481 1483 1485 1487 1489 1490 1492 1493 1495 1496 1498 1499 1501 1503 1504 1506 1507 1508 1510 1511
1485 1487 1487 1485 1484 1481 1478 1478 1478 1478 1477 1477 1476 1474 1470 1470 1469 1469 1468 1468 1468 1469 1469 1471 1472 1473 1475 1476 1477 1479 1480 1482 1484 1486 1488 1489 1491 1493 1494 1496 1498 1499 1501 1503 1504 1506 1507 1509 1510
1483 1487 1486 1485 1483 1480 1477 1477 1476 1476 1475 1475 1474 1472 1468 1468 1467 1466 1466 1466 1466 1467 1467 1468 1469 1470 1472 1473 1475 1476 1478 1479 1481 1483 1485 1487 1489 1490 1492 1493 1495 1497 1499 1501 1503 1504 1506 1507 1509
1483 1489 1485 1482 1481 1478 1476 1476 1475 1474 1473 1471 1470 1469 1467 1466 1464 1463 1462 1462 1462 1463 1464 1464 1465 1467 1468 1469 1471 1473 1475 1476 1478 1480 1482 1484 1486 1488 1489 1491 1492 1494 1497 1499 1500 1502 1504 1505 1507
1483 1486 1479 1478 1478 1477 1475 1475 1474 1472 1470 1467 1465 1464 1464 1463 1461 1460 1459 1457 1457 1458 1459 1460 1461 1462 1464 1465 1467 1469 1471 1473 1474 1476 1478 1480 1482 1484 1486 1488 1490 1492 1494 1496 1498 1500 1502 1503 1505
1481 1481 1478 1476 1476 1475 1474 1472 1471 1470 1465 1463 1462 1460 1459 1459 1458 1457 1455 1454 1453 1454 1455 1456 1456 1457 1459 1460 1462 1464 1466 1468 1470 1472 1474 1476 1478 1480 1482 1484 1487 1489 1491 1493 1495 1497 1499 1501 1503
1481 1478 1477 1475 1474 1473 1471 1469 1467 1464 1459 1458 1457 1456 1455 1454 1453 1452 1450 1449 1449 1449 1450 1451 1452 1453 1454 1455 1457 1459 1461 1463 1465 1467 1470 1472 1474 1476 1478 1481 1483 1485 1487 1489 1492 1494 1496 1499 1501
1480 1477 1475 1473 1471 1470 1468 1465 1463 1456 1453 1453 1452 1451 1449 1448 1447 1446 1446 1445 1445 1444 1444 1445 1447 1448 1449 1450 1452 1454 1456 1458 1460 1463 1465 1468 1470 1472 1474 1476 1479 1482 1484 1486 1488 1490 1493 1496 1498
1478 1476 1473 1470 1468 1466 1464 1459 1459 1447 1448 1448 1447 1445 1444 1442 1441 1440 1440 1439 1439 1439 1440 1441 1442 1443 1444 1445 1446 1448 1451 1453 1455 1457 1460 1463 1465 1468 1470 1472 1475 1478 1480 1483 1485 1487 1490 1492 1495
1477 1476 1471 1466 1465 1463 1463 1455 1449 1443 1445 1443 1441 1440 1438 1436 1435 1435 1434 1434 1433 1433 1434 1435 1437 1438 1439 1440 1442 1444 1446 1448 1450 1452 1455 1458 1461 1463 1465 1467 1470 1473 1476 1479 1481 1484 1487 1489 1491
1477 1477 1474 1464 1463 1461 1464 1453 1441 1441 1441 1438 1436 1434 1431 1430 1429 1429 1429 1429 1428 1428 1429 1430 1432 1432 1433 1435 1436 1438 1440 1442 1444 1447 1450 1452 1455 1458 1461 1463 1465 1468 1471 1475 1477 1480 1483 1485 1487
1480 1481 1475 1467 1461 1460 1460 1450 1438 1438 1437 1433 1430 1428 1425 1424 1423 1424 1424 1424 1423 1423 1423 1425 1426 1427 1428 1430 1431 1433 1435 1437 1439 1442 1444 1447 1450 1453 1455 1458 1460 1463 1466 1469 1472 1475 1478 1481 1483
1480 1479 1474 1469 1460 1459 1456 1445 1435 1433 1432 1429 1426 1422 1420 1419 1418 1418 1419 1419 1418 1418 1418 1420 1421 1422 1423 1425 1426 1427 1430 1432 1434 1436 1439 1442 1444 1447 1450 1453 1455 1458 1460 1463 1467 1470 1474 1477 1479
1476 1476 1473 1464 1457 1457 1449 1440 1431 1428 1427 1424 1421 1418 1416 1414 1413 1414 1414 1413 1413 1413 1413 1414 1416 1417 1418 1419 1421 1422 1424 1426 1428 1430 1433 1436 1439 1441 1444 1447 1450 1452 1455 1458 1461 1465 1469 1472 1476
1474 1475 1469 1460 1454 1453 1445 1435 1426 1423 1422 1419 1417 1414 1412 1409 1408 1408 1409 1408 1408 1408 1409 1409 1410 1411 1412 1414 1416 1417 1419 1420 1423 1425 1428 1431 1433 1436 1438 1441 1444 1447 1449 1452 1456 1459 1463 1466 1470
1470 1470 1465 1461 1454 1450 1447 1431 1423 1418 1417 1415 1413 1410 1408 1407 1406 1405 1404 1404 1404 1403 1404 1404 1405 1406 1408 1410 1411 1412 1414 1415 1417 1419 1421 1424 1427 1429 1432 1435 1438 1441 1444 1446 1450 1453 1457 1460 1464
1466 1461 1460 1458 1461 1457 1452 1443 1422 1418 1415 1412 1409 1406 1404 1403 1402 1401 1401 1400 1399 1399 1400 1401 1401 1401 1403 1404 1405 1406 1407 1408 1410 1413 1415 1418 1421 1423 1426 1428 1431 1434 1437 1440 1444 1447 1451 1455 1458
1462 1458 1458 1457 1459 1459 1451 1452 1425 1419 1414 1409 1406 1403 1401 1400 1399 1398 1398 1397 1397 1396 1397 1397 1397 1397 1399 1400 1400 1401 1402 1404 1406 1408 1410 1412 1414 1416 1419 1422 1425 1428 1431 1434 1438 1441 1445 1448 1451
1459 1459 1457 1458 1461 1459 1446 1449 1429 1419 1411 1407 1404 1401 1399 1398 1397 1396 1395 1395 1394 1394 1394 1394 1394 1393 1393 1394 1394 1395 1397 1398 1400 1402 1404 1405 1407 1409 1412 1416 1418 1421 1425 1428 1432 1436 1439 1442 1446
1461 1465 1466 1466 1468 1456 1443 1442 1426 1410 1407 1405 1403 1400 1398 1396 1395 1393 1392 1391 1390 1390 1390 1390 1390 1389 1389 1389 1389 1390 1391 1393 1394 1396 1398 1399 1400 1402 1405 1409 1412 1415 1418 1422 1426 1430 1433 1437 1440
1461 1464 1469 1470 1465 1452 1443 1436 1417 1407 1403 1401 1399 1398 1396 1394 1392 1391 1390 1389 1387 1387 1387 1387 1387 1386 1386 1385 1385 1386 1387 1388 1389 1391 1392 1393 1395 1396 1399 1403 1406 1409 1412 1416 1420 1423 1427 1431 1434
1460 1462 1461 1465 1463 1460 1443 1431 1415 1404 1401 1398 1397 1395 1393 1392 1391 1389 1388 1386 1385 1385 1384 1384 1383 1383 1382 1381 1381 1381 1381 1382 1383 1385 1386 1387 1389 1391 1393 1397 1400 1403 1406 1409 1413 1417 1420 1425 1428
1456 1458 1463 1464 1463 1455 1441 1432 1418 1406 1402 1397 1395 1393 1392 1390 1388 1387 1385 1384 1384 1383 1382 1382 1381 1380 1378 1377 1377 1377 1377 1377 1378 1379 1380 1381 1383 1385 1388 1391 1394 1397 1399 1403 1407 1410 1414 1418 1422
1456 1458 1458 1460 1459 1456 1444 1422 1407 1405 1400 1398 1395 1392 1391 1390 1389 1386 1384 1384 1382 1381 1380 1379 1377 1376 1375 1374 1374 1373 1372 1372 1373 1373 1374 1376 1377 1380 1382 1385 1388 1390 1393 1397 1401 1404 1408 1412 1416
1450 1452 1455 1460 1458 1456 1449 1422 1402 1400 1397 1396 1394 1392 1390 1389 1387 1385 1384 1382 1380 1379 1377 1376 1375 1373 1371 1370 1370 1369 1368 1368 1368 1368 1369 1370 1372 1374 1376 1379 1382 1384 1387 1391 1395 1398 1402 1406 1410